Regional Weather Roundup
Issued by NWS Albany, NY

Home | Current Version | Previous Version | Text Only | Print | Product List | Glossary On
Versions: 1 2 3 4 5 6 7 8 9 10 11 12 13 14 15 16 17 18 19 20 21 22 23 24 25 26 27 28 29 30 31 32 33 34 35 36 37 38 39 40 41 42 43 44 45 46 47 48 49 50
000
ASUS41 KALY 250010
RWRALY

NEW YORK STATE HOURLY WEATHER ROUNDUP
NATIONAL WEATHER SERVICE ALBANY NY
700 PM EST WED DEC 24 2014

NOTE: "FAIR" INDICATES FEW OR NO CLOUDS BELOW 12,000 FEET WITH NO
SIGNIFICANT WEATHER AND/OR NO OBSTRUCTIONS TO VISIBILITY.

NYZ032-033-038>043-046>054-057>066-NYZ062>081-250100-
EAST


CITY           SKY/WX    TMP DP  RH WIND       PRES   REMARKS
ALBANY         LGT RAIN  47  45  93 CALM      29.61F FOG
GLENS FALLS    LGT RAIN  38  36  92 CALM      29.62F FOG
POUGHKEEPSIE   CLOUDY    47  45  93 VRB3      29.61F FOG
NEWBURGH       DRIZZLE   48  48 100 E6        29.62F FOG
MONTGOMERY     LGT RAIN  47  46  97 N3        29.59F FOG
WHITE PLAINS   LGT RAIN  52  51  97 SE7       29.61F VSB 1/4
ISLIP          LGT RAIN  59  57  93 S13       29.65F VSB 1
NEW YORK CITY  FOG       55  54  94 S15       29.61F VSB 1/2
CENTRAL PARK   CLOUDY    53  52  96 S6        29.64F FOG
$$

NYZ005>009-017-018-044>046-055-056-250100-
CENTRAL


CITY           SKY/WX    TMP DP  RH WIND       PRES   REMARKS
FULTON         CLOUDY    49  46  90 SE8       29.42F
SYRACUSE       CLOUDY    50  48  93 E9        29.43F
ROME           CLOUDY    47  46  97 SE12      29.51F
ELMIRA         CLOUDY    54  50  86 CALM      29.46F
BINGHAMTON     FOG       49  48  97 SE14      29.49F VSB 1/4
MONTICELLO     CLOUDY    45  43  93 E8        29.59F VSB 1/2
$$

NYZ026>034-041>043-250100-
NORTH


CITY           SKY/WX    TMP DP  RH WIND       PRES   REMARKS
WATERTOWN      CLOUDY    55  46  71 S7        29.41F
FORT DRUM      NOT AVBL
MASSENA        FOG       38  36  92 NE6       29.48F VSB 1/2 WCI  33
SARANAC LAKE   LGT RAIN  47  46  97 SE9       29.49F
PLATTSBURGH    LGT RAIN  41  41 100 SE20      29.55F
$$

NYZ001>004-010>016-019>021-250100-
WEST


CITY           SKY/WX    TMP DP  RH WIND       PRES   REMARKS
NIAGARA FALLS  CLOUDY    53  47  79 S9        29.31F
BUFFALO        CLOUDY    55  48  77 S13G22    29.33F
DUNKIRK        CLOUDY    57  49  74 S7G22     29.32F
JAMESTOWN      CLOUDY    50  46  87 S9        29.36F
WELLSVILLE     CLOUDY    49  46  90 S10G20    29.46F
ROCHESTER      CLOUDY    54  48  80 S12       29.38F
PENN YAN       CLOUDY    52  48  86 SW9       29.43S
$$

             KEY
       WCI = WIND CHILL INDEX
       VSB = VISIBILITY
       HX  = HEAT INDEX
$$


USA.gov is the U.S. government's official web portal to all federal, state and local government web resources and services.